Location: Camp Crooked Creek
(37.9149°N, 85.6607°W)
Time: 10:23:15
(UTC-04:00)

Lacrosse 4 - Visible Passes

Search period start: 28 July 2014 00:00
Search period end: 07 August 2014 00:00
Orbit: 673 x 680 km, 68.0° (Epoch: 25 February)

Date Brightness Start Highest point End Pass type
(mag) Time Alt. Az. Time Alt. Az. Time Alt. Az.
02 Aug 4.3 06:16:37 10° SSE 06:20:02 20° ESE 06:23:29 10° ENE visible
04 Aug 4.2 05:47:10 10° SSE 05:50:33 20° ESE 05:53:56 10° ENE visible
05 Aug 2.3 06:21:09 10° SSW 06:25:50 62° ESE 06:30:33 10° NNE visible
06 Aug 4.1 05:17:43 10° SSE 05:21:03 19° ESE 05:24:24 10° ENE visible
